Other Public Products
Issued by NWS Grand Forks, ND

Home | Current Version | Previous Version | Graphics & Text | Print | Product List | Glossary Off
Versions: 1 2 3 4 5 6 7 8 9 10 11 12 13 14 15 16 17 18 19 20 21 22 23 24 25 26 27 28 29 30 31 32 33 34 35 36 37 38 39 40 41 42 43 44 45 46 47 48 49 50

000
FPUS83 KFGF 242231
OPUFGF
PRAIRIE TO PINES WEATHER ROUNDUP
NATIONAL WEATHER SERVICE EASTERN NORTH DAKOTA/GRAND FORKS ND
400 PM CST MON NOV 24 2014

 **SATELLITE DATA USED TO AUGMENT SKY COVER AT AUTOMATED STATIONS**
 *****  WEATHER ACROSS EASTERN NORTH DAKOTA  *****

CITY           SKY/WX    TMP DP  RH WIND       PRES   REMARKS
GRAND FORKS    PTCLDY    18   9  68 N17G29    29.90R WCI   3
GRAND FORKS AF CLEAR     18   8  63 N17G28    29.91R WCI   3
GRAND CITY NWS   N/A     16 N/A N/A N13         N/A  WCI   2
BUXTON           N/A     19  11  73 NW23        N/A  WCI   1
DEVILS LAKE    CLEAR     18   0  45 N10       29.91R WCI   6
FARGO          CLEAR     20  11  68 N20       29.87R WCI   4
WAHPETON ARPT  CLEAR     21  12  68 N22G30    29.86R WCI   5
$$

 *****  WEATHER ACROSS CENTRAL AND WESTERN NORTH DAKOTA  *****

CITY           SKY/WX    TMP DP  RH WIND       PRES   REMARKS
JAMESTOWN      CLEAR     20   0  41 NW20      29.92R WCI   4
BISMARCK       CLEAR     26   3  37 NW12      29.98R WCI  16
MINOT          CLEAR     22   8  55 NW5       29.94S WCI  16
MINOT AFB      CLEAR     22  11  63 NW9       29.95R WCI  12
GARRISON         N/A     24  10  55 NW15      29.96R WCI  11
WILLISTON      MOCLDY    26  18  71 SW9       29.97F WCI  17
DICKINSON      PTCLDY    24  16  71 W18       29.95R WCI  10
HETTINGER      MOCLDY    25  18  74 NW18      29.98R WCI  11
$$

 *****  OTHER OBSERVATIONS NORTHEAST NORTH DAKOTA  *****

CITY           SKY/WX    TMP DP  RH WIND       PRES   REMARKS
WALHALLA         N/A     14   0  52 NW14      29.95R WCI  -1
LANGDON        FAIR      14   3  62 NW14      29.90R WCI  -1
CAVALIER       FAIR      14   0  52 NW13G21   29.94R WCI   0
GRAFTON        FAIR      16   5  62 NW18      29.93R WCI  -1
CANDO          FAIR      18   0  45 N8        29.94R WCI   7
FORT TOTTEN      N/A     20   2  46 NW7       29.95S WCI  11
ROLLA          FAIR      16  -8  35 NW7       29.91R WCI   6
RUGBY          FAIR      16   1  53 NW12      29.95R WCI   3
 ***** THE ABOVE OBSERVATIONS ARE NON NWS ARE NOT QUALITY
        CONTROLLED AND MAY MIS-REPORT RAIN FOR SNOW...
$$

 *****  OTHER OBSERVATIONS SOUTHEAST NORTH DAKOTA *****

CITY           SKY/WX    TMP DP  RH WIND       PRES   REMARKS
COOPERSTOWN    NOT AVBL
VALLEY CITY    FLURRIES  18   5  57 NW21G29   29.91R WCI   1
OAKES            N/A     21   7  53 NW22      29.91R WCI   5
GWINNER        CLEAR     23  12  63 NW20      29.91R WCI   8
SHEYENNE NWR     N/A     21  10  63 N16       29.95S WCI   7
BUFFALO        NOT AVBL
WYNDMERE         N/A     19  12  73 NW21        N/A  WCI   3
 ***** THE ABOVE OBSERVATIONS ARE NON NWS ARE NOT QUALITY
       CONTROLLED AND MAY MIS-REPORT RAIN FOR SNOW...
$$

  *****  WEATHER ACROSS NORTHERN MINNESOTA  *****

CITY           SKY/WX    TMP DP  RH WIND       PRES   REMARKS
FLAG ISLAND    CLOUDY    14   9  79 NW18      29.79R WCI  -3
WARROAD        CLEAR     14  10  85 NW10      29.81R WCI   1
ROSEAU         CLEAR     16   9  73 NW13      29.83R WCI   2
HALLOCK        CLOUDY    14   9  79 NW18      29.91R WCI  -3
THF RVR FALLS  PTCLDY    12   7  79 NW17      29.85R WCI  -5
HALSTAD          N/A     17  10  74 N21         N/A  WCI   0
FOSSTON        MOCLDY    12   7  79 NW10      29.82R WCI  -1
BAUDETTE       CLEAR     14   9  80 NW13G22   29.74R WCI   0
WASKISH        LGT SNOW  14  10  85 CALM      29.76R
CROOKSTON      CLEAR     14  10  85 N25       29.89R WCI  -5
$$
  *****  WEATHER ACROSS CENTRAL AND WEST MINNESOTA  *****

CITY           SKY/WX    TMP DP  RH WIND       PRES   REMARKS
BEMIDJI        LGT SNOW  13   8  83 NW15G22   29.75R WCI  -3
PARK RAPIDS    CLOUDY    11   5  77 NW18G26   29.74R WCI  -7
WADENA         PTCLDY    10   7  85 NW17      29.73R WCI  -7
DETROIT LAKES  LGT SNOW  12  10  92 N17       29.81R WCI  -5
MOORHEAD       CLEAR     18  14  86 N17G23    29.88R WCI   2
FERGUS FALLS   CLOUDY    12   7  79 N25G31    29.85R WCI  -8
ELBOW LAKE     FLURRIES  11   7  83 NW21G28   29.80R WCI  -7
MORRIS MN        N/A     14   9  79 NW20G28   29.79R WCI  -3
STAPLES        CLOUDY    12   7  79 NW18      29.71R WCI  -5
WHEATON        FLURRIES  19  12  73 NW21      29.86R WCI   3
$$
  *****  WEATHER ELSEWHERE ACROSS MINNESOTA  *****

CITY           SKY/WX    TMP DP  RH WIND       PRES   REMARKS
DULUTH         LGT SNOW  19  12  74 N20G32    29.53R BLWGSNOWWCI   3
INTRNTL FALLS  PTCLDY    16  10  77 NW14      29.70R WCI   2
ELY            FLURRIES  16  10  79 NW10G22   29.56R WCI   3
CLOQUET        CLOUDY    19  12  73 NW17G28   29.57R WCI   4
BRAINERD       MIX PCPN  15   8  73 N23G29    29.66R WCI  -3
HIBBING        FLURRIES  18  10  71 N16G29    29.58R WCI   3
ALEXANDRIA     CLOUDY    12   5  73 NW21G26   29.72R WCI  -7
SAINT CLOUD    CLOUDY    18   8  65 NW18G29   29.65R WCI   2
MINNEAPOLIS    LGT SNOW  18  12  77 NW21G26   29.63R WCI   1
$$

  *****  WEATHER ACROSS SOUTH DAKOTA  *****

CITY           SKY/WX    TMP DP  RH WIND       PRES   REMARKS
SIOUX FALLS    MOCLDY    25  14  63 N30G37    29.83R WCI   8
BROOKINGS      NOT AVBL
WATERTOWN      CLEAR     21  12  68 NW23G31   29.82R WCI   5
HURON          CLEAR     26  12  55 NW23G31   29.92R WCI  11
SISSETON         N/A     21  13  71 N25G38    29.84R WCI   4
ABERDEEN       CLEAR     26   6  42 NW24G31   29.92R WCI  11
MITCHELL       CLEAR     29  14  53 NW23G32   29.93R WCI  15
PIERRE         CLEAR     30   6  36 NW16      29.97R WCI  19
MOBRIDGE       PTCLDY    27   9  46 NW14      29.95R WCI  16
RAPID CITY     FLURRIES  33  27  78 NW25G35   29.99R WCI  20
$$

  *****  SOME WEATHER IN NEARBY STATES *****

CITY           SKY/WX    TMP DP  RH WIND       PRES   REMARKS
GLASGOW MT     PTCLDY    36  26  67 W9        30.01S
GREAT FALLS MT MOSUNNY   40  16  37 W21G26    30.08F
CHEYENNE WY    LGT SNOW  27  20  75 NW22G32   30.06R VSB 1   WCI  13
SCOTTSBLUFF NE PTSUNNY   42  20  41 NW31G52   30.01R
OMAHA NE       PTCLDY    36  17  46 NW28G35   29.86R
DES MOINES IA  CLOUDY    28  17  63 NW25G31   29.76R WCI  13
DAVENPORT IA   LGT SNOW  26  20  77 W22G33    29.66R WCI  12
CHICAGO IL     LGT SNOW  28  24  85 W23G36    29.55R FOG     WCI  14
EAU CLAIRE WI  LGT SNOW  23  19  85 W14G23    29.51R FOG     WCI  11
LA CROSSE WI   CLOUDY    26  19  74 W17G23    29.53R WCI  13
$$

  *****  SOME NATIONAL WEATHER *****

CITY           SKY/WX    TMP DP  RH WIND       PRES   REMARKS
LA GUARDIA NY  PTCLDY    62  55  77 S9        29.63R
RALEIGH NC     MOCLDY    68  61  78 S9        29.78S
ATLANTA GA     PTCLDY    73  50  44 W7        29.83R
NEW ORLEANS LA PTSUNNY   66  47  50 NW13      29.91R
OKLAHOMA CITY  MOSUNNY   58  15  18 NW16G24   29.98R
ALBUQUERQUE NM MOSUNNY   46   4  17 NW26G33   30.10R
SALT LAKE CITY MOSUNNY   40  22  48 W6        30.38R
LOS ANGELES CA MOSUNNY   78  17  10 W8        30.18S
BOISE ID       MOSUNNY   46  27  47 NW7       30.41S
SEATTLE WA     CLOUDY    48  38  68 S8        30.23F
$$

*** WEATHER ACROSS MANITOBA...SASKATCHEWAN AND ONTARIO ***
                ***ONTARIO***

CITY           SKY/WX    TMP DP  RH WIND       PRES   REMARKS
GERALDTON      LGT SNOW  18  14  86 N14G23    29.38R VSB 1   WCI   4
THUNDER BAY    LGT SNOW  19  14  79 N10G20    29.48R DRFTSNOWWCI   8
SIOUX LOOKOUT  FLURRIES  12   7  79 N12G18    29.68R WCI  -2
TORONTO        PTCLDY    50  37  62 SW41G61   29.29R
BIG TROUT LK   FLURRIES   3   1  92 NW8       29.76R WCI -10
PICKLE LAKE    MOCLDY     9   3  78 N6G17     29.65R WCI  -1
DRYDEN         FLURRIES  12   7  79 N7G18     29.71R WCI   2
KENORA         MOCLDY    12   7  79 N14G20    29.75R WCI  -3
$$
                *** MANITOBA***

CITY           SKY/WX    TMP DP  RH WIND       PRES   REMARKS
BRANDON        MOCLDY    16   3  57 W10       29.93R WCI   3
DAUPHIN        CLEAR     12   3  67 W9        29.91S WCI   0
ISLAND LAKE    PTCLDY     0  -8  71 SW5       29.86S WCI -10
PILOT MOUND      N/A     12   3  67 NW14        N/A  WCI  -3
THE PAS        LGT SNOW  10   7  85 W9        29.89S WCI  -2
THOMPSON       FLURRIES   3  -2  78 W6        29.84R WCI  -8
WINNIPEG       PTCLDY     9   0  66 NW13      29.94R WCI  -7
LYNN LAKE      CLEAR     -2  -6  84 NW8       29.87R WCI -17
CHURCHILL      LGT SNOW  -4  -8  84 N23       29.83R BLWGSNOWWCI -29
GILLAM         LGT SNOW   1  -2  85 W8        29.80R WCI -12
$$
                ***SASKATCHEWAN***

CITY           SKY/WX    TMP DP  RH WIND       PRES   REMARKS
ESTEVAN        LGT SNOW N/A N/A N/A W10         N/A
KINDERSLEY     CLOUDY    30  27  86 NW7       29.96S WCI  23
LLOYDMINSTER   CLOUDY    18  16  93 W8        29.91F WCI   7
PRINCE ALBERT  MOCLDY    18  12  79 W14       29.94R WCI   4
REGINA         FLURRIES  28  25  86 NW16G22   29.91R WCI  17


USA.gov is the U.S. government's official web portal to all federal, state and local government web resources and services.